DELTA 1 DEB, 10227

Orbit data source: Space-Track

DELTA 1 DEB, 10227 is space debris in LEO originally from a launch on Thu, 14 Jul 1977 UTC launched from the Air Force Eastern Test Range (AFETR). Debris objects in space refer to the collection of defunct objects orbiting the Earth. Examples of debris include non-operational satellites, rocket bodies, and fragments generated from explosions, collisions, or faulty payload assembly.

Loading next visibility...
Identifier
10227, 1977-065BE
Orbit
LEO
Country
Flag of USUS
Related business
Manufacturer
Unknown
Mission
Spacecraft
Bus & Motor
Unknown
Mass
Unknown
Launch date (UTC)
1977-07-14 (48 years ago)
Launch vehicle
Unknown
Launch site
Air Force Eastern Test Range (AFETR)
Object type
Payload
Rocket body
Debris
Shape & HBR
Unknown shape, 0.6 m
Radar Cross Section
Medium (>0.1 m² and <1 m²)

Expand to show TLE details & history
Last TLE update: 13 hours ago

TLE from 13 hours ago
0 DELTA 1 DEB
1 10227U 77065BE  25351.90719473  .00002486  00000-0  80379-3 0  9993
2 10227  28.9485 175.2919 0675226 176.9226 183.5774 13.52549849350110
Epoch: 2025-12-17T21:46Z
TLE epoch observation values (Epoch: 2025-12-17T21:46:21.624Z)
Latitude
-0.00003°
Longitude
121.93142°
Altitude
1,562.762 km
Speed
6.846 km/s
True Right ascension
11h 41m 10s
True Declination
0° 00' 00"
Sunlit
Object was in daylight at epoch
Visualization orbit readout
Latitude
Unknown
Longitude
Unknown
Altitude
Unknown
Speed
Unknown
Apparent Right ascension
Unknown
Apparent Declination
Unknown
Sunlit
N/A
Visualization observer readout
Local Sidereal Time
10:01:45
Azimuth
Unknown
Elevation
Unknown
Doppler factor
Unknown
Orbital elements
Apogee altitude
1,569.462 km
Perigee altitude
564.064 km
Semi-major axis
7,444.9 km
Eccentricity
0.06752
Inclination
28.9485°
RAAN
175.2919°
Arg. of periapsis
176.9226°
True anomaly
183.13222°
Mean anomaly
183.5774°
Eccentric anomaly
183.35124°
Mean motion
3.37874 °/min
Orbital period
106.55 mins
BSTAR
0.00080379
Loading maneuver chart data...
Computing Atmospheric mass density...

Documentation

Showing up to 5 results
|